THOR ABLESTAR DEB, 1522

Orbit data source: Space-Track

THOR ABLESTAR DEB, 1522 is space debris in LEO originally from a launch on Fri, 13 Aug 1965 UTC launched from the Air Force Western Test Range (AFWTR). Debris objects in space refer to the collection of defunct objects orbiting the Earth. Examples of debris include non-operational satellites, rocket bodies, and fragments generated from explosions, collisions, or faulty payload assembly.

Loading next visibility...
Identifier
1522, 1965-065L
Orbit
LEO
Country
Flag of USUS
Related business
Manufacturer
Unknown
Mission
Spacecraft
Bus & Motor
Unknown
Mass
Unknown
Launch date (UTC)
1965-08-13 (61 years ago)
Launch vehicle
Unknown
Launch site
Air Force Western Test Range (AFWTR)
Object type
Payload
Rocket body
Debris
Shape & HBR
Unknown shape, 0.4 m
Radar Cross Section
Medium (>0.1 m² and <1 m²)

Expand to show TLE details & history
Last TLE update: 6 hours ago

TLE from 6 hours ago
0 THOR ABLESTAR DEB
1  1522U 65065L   26166.22459558  .00000027  00000-0  36882-4 0  9993
2  1522  90.0656 126.4741 0068881 252.4798 174.3275 13.33857742959534
Epoch: 2026-06-15T05:23Z
TLE epoch observation values (Epoch: 2026-06-15T05:23:25.058Z)
Latitude
66.96084°
Longitude
141.95217°
Altitude
1,195.405 km
Speed
7.237 km/s
True Right ascension
08h 25m 16s
True Declination
66° 50' 38"
Sunlit
Object was in daylight at epoch
Visualization orbit readout
Latitude
Unknown
Longitude
Unknown
Altitude
Unknown
Speed
Unknown
Apparent Right ascension
Unknown
Apparent Declination
Unknown
Sunlit
N/A
Visualization observer readout
Local Sidereal Time
21:36:38
Azimuth
Unknown
Elevation
Unknown
Doppler factor
Unknown
Orbital elements
Apogee altitude
1,181.033 km
Perigee altitude
1,077.608 km
Semi-major axis
7,507.458 km
Eccentricity
0.00689
Inclination
90.0656°
RAAN
126.4741°
Arg. of periapsis
252.4798°
True anomaly
174.40485°
Mean anomaly
174.3275°
Eccentric anomaly
174.36624°
Mean motion
3.3366 °/min
Orbital period
107.89 mins
BSTAR
0.000036882
Loading maneuver chart data...
Computing Atmospheric mass density...
Loading historical data...
Loading historical data...
Loading historical data...
Loading historical data...
Loading historical data...
Loading historical data...
Loading historical data...

Documentation

Showing up to 5 results
|